IW5EFR Vecchia di Pontedera IT current weather conditions

sailwx.info

Wind from 272

Air temperature 11.1° C
Dewpoint 2.4° C

Last reported at 2016-Feb-11 16:42 UTC.
Time now 2016-Feb-11 17:09 UTC

Location: N 43°37' E 010°38'.
View on Google Maps.

See reports from other nearby stations

  
Tides and Currents Weather Stations Pressure Air Temp Water Temp Dewpoint Dewpoint Depression Visibility Wind Speed Wind Dir Waves Ship Positions
date/time (UTC)wind fromknots sea level pressurealtimeterstation pressurevisibilityair tempwater tempwave heightnotes
2016-Feb-11 16:42 272 11.1
2016-Feb-11 16:37 272 11.1
2016-Feb-11 16:32 272 11.1
2016-Feb-11 16:27 272 11.7
2016-Feb-11 16:22 272 11.7
2016-Feb-11 16:17 272 11.7
2016-Feb-11 16:12 272 0 gusting 6 11.7
2016-Feb-11 16:07 272 0 gusting 6 12.2
2016-Feb-11 16:02 271 3 gusting 6 12.2
2016-Feb-11 15:57 265 5 gusting 8 12.2
2016-Feb-11 15:52 271 2 gusting 7 12.2
2016-Feb-11 15:47 282 2 gusting 7 12.8
2016-Feb-11 15:42 275 1 gusting 7 12.8
2016-Feb-11 15:37 288 2 gusting 7 12.8
2016-Feb-11 15:32 277 3 gusting 8 12.8
2016-Feb-11 15:27 285 5 gusting 8 12.8
2016-Feb-11 15:22 273 3 gusting 9 12.8
2016-Feb-11 15:17 260 5 gusting 9 12.8
2016-Feb-11 15:12 262 5 gusting 9 12.8
2016-Feb-11 15:07 265 1 gusting 9 12.8
2016-Feb-11 15:02 290 4 gusting 9 12.8
2016-Feb-11 14:57 278 4 gusting 9 12.8
2016-Feb-11 14:52 271 4 gusting 8 12.8
2016-Feb-11 14:47 265 3 gusting 8 12.8
2016-Feb-11 14:42 269 5 gusting 9 12.8
2016-Feb-11 14:37 248 4 gusting 9 12.8
2016-Feb-11 14:32 275 2 gusting 9 12.8
2016-Feb-11 14:27 277 4 gusting 9 13.3
2016-Feb-11 14:22 255 7 gusting 10 13.3
2016-Feb-11 14:17 280 3 gusting 10 13.3
2016-Feb-11 14:12 265 6 gusting 11 13.3
2016-Feb-11 14:07 245 3 gusting 11 13.3
2016-Feb-11 14:02 258 3 gusting 11 13.3
2016-Feb-11 13:57 244 2 gusting 7 13.3
2016-Feb-11 13:52 270 5 gusting 5 13.9
2016-Feb-11 13:47 246 3 gusting 5 13.9
2016-Feb-11 13:42 289 2 gusting 6 13.9
2016-Feb-11 13:37 279 2 gusting 6 13.9
2016-Feb-11 13:32 273 1 gusting 6 13.9
2016-Feb-11 13:27 274 2 gusting 6 13.9
2016-Feb-11 13:22 262 0 gusting 6 13.9
2016-Feb-11 13:17 272 1 gusting 6 13.9
2016-Feb-11 13:12 272 1 gusting 6 13.9
2016-Feb-11 13:07 288 4 gusting 6 13.9
2016-Feb-11 13:02 282 1 gusting 6 13.9
2016-Feb-11 12:57 286 2 gusting 5 13.9
2016-Feb-11 12:52 276 2 gusting 5 13.9
2016-Feb-11 12:47 260 0 gusting 5 13.9
2016-Feb-11 12:42 260 2 gusting 5 13.9
2016-Feb-11 12:37 260 13.9
2016-Feb-11 12:32 260 13.3
2016-Feb-11 12:27 260 2 gusting 3 13.3
2016-Feb-11 12:22 251 2 gusting 3 13.3
2016-Feb-11 12:17 203 0 gusting 3 13.3
2016-Feb-11 12:12 203 12.8
2016-Feb-11 12:07 203 2 gusting 4 12.8
2016-Feb-11 12:02 203 1 gusting 4 12.8
2016-Feb-11 11:57 261 12.8
2016-Feb-11 11:52 261 12.8
2016-Feb-11 11:47 261 1 gusting 2 12.8
2016-Feb-11 11:42 261 1 gusting 2 12.8
2016-Feb-11 11:37 263 12.8
2016-Feb-11 11:32 175 1 gusting 2 12.8
2016-Feb-11 11:27 168 12.2
2016-Feb-11 11:22 168 0 gusting 5 12.2
2016-Feb-11 11:17 168 12.2
2016-Feb-11 11:12 169 12.2
2016-Feb-11 11:07 150 1 gusting 4 12.2
2016-Feb-11 11:02 161 3 gusting 4 12.2
2016-Feb-11 10:57 161 11.7
2016-Feb-11 10:52 161 11.7
2016-Feb-11 10:47 161 11.7
2016-Feb-11 10:42 166 11.1
2016-Feb-11 10:37 166 11.1
2016-Feb-11 10:32 166 3 gusting 4 11.1
2016-Feb-11 10:27 166 0 gusting 4 11.1
2016-Feb-11 10:22 175 1 gusting 3 11.1
2016-Feb-11 10:17 171 11.1
2016-Feb-11 10:12 138 1 gusting 4 10.6
2016-Feb-11 10:07 119 10.6
2016-Feb-11 10:02 119 0 gusting 4 10.6
2016-Feb-11 09:57 025 10.0
2016-Feb-11 09:52 025 1 gusting 4 10.0
2016-Feb-11 09:47 025 1 gusting 4 9.4
2016-Feb-11 09:42 025 3 gusting 2 9.4
2016-Feb-11 09:37 054 1 gusting 2 9.4
2016-Feb-11 09:32 065 2 gusting 3 8.9
2016-Feb-11 09:27 113 8.9
2016-Feb-11 09:22 113 1 gusting 4 8.9
2016-Feb-11 09:17 113 8.9
2016-Feb-11 09:12 113 1 gusting 4 8.3
2016-Feb-11 09:07 113 1 gusting 4 8.3
2016-Feb-11 09:02 113 0 gusting 4 8.3
2016-Feb-11 08:57 136 1 gusting 5 8.3
2016-Feb-11 08:52 140 0 gusting 5 7.8
2016-Feb-11 08:47 140 2 gusting 5 7.8
2016-Feb-11 08:42 082 2 gusting 4 7.8
2016-Feb-11 08:37 082 1 gusting 4 7.2
2016-Feb-11 08:32 082 7.2
2016-Feb-11 08:27 082 4 7.2
2016-Feb-11 08:22 082 2 7.2
2016-Feb-11 08:17 082 7.2
2016-Feb-11 08:12 082 6.7
2016-Feb-11 08:07 082 6.1
2016-Feb-11 08:02 082 6.1
2016-Feb-11 07:57 082 5.6
2016-Feb-11 07:52 082 5.6
2016-Feb-11 07:47 082 5.0
2016-Feb-11 07:42 082 5.0
2016-Feb-11 07:37 082 4.4
2016-Feb-11 07:32 082 4.4
2016-Feb-11 07:27 082 3.9
2016-Feb-11 07:22 082 3.9
2016-Feb-11 07:17 082 3.9
2016-Feb-11 07:12 082 3.3
2016-Feb-11 07:07 082 0 3.3
2016-Feb-11 07:02 086 4 3.3
2016-Feb-11 06:57 088 3.3
2016-Feb-11 06:52 088 2.8
2016-Feb-11 06:47 088 2.8
2016-Feb-11 06:42 088 2.8
2016-Feb-11 06:37 088 2.8
2016-Feb-11 06:32 088 2.8
2016-Feb-11 06:27 088 0 gusting 6 2.8
2016-Feb-11 06:22 020 2.8
2016-Feb-11 06:17 019 2.8
2016-Feb-11 06:12 019 2 gusting 3 2.8
2016-Feb-11 06:07 017 2.8
2016-Feb-11 06:02 025 2.8
2016-Feb-11 05:57 032 1 gusting 4 2.8
2016-Feb-11 05:52 040 1 gusting 2 2.8
2016-Feb-11 05:47 041 0 gusting 2 2.8
2016-Feb-11 05:42 005 3 2.8
2016-Feb-11 05:37 005 3 2.8
2016-Feb-11 05:32 005 3.3
2016-Feb-11 05:27 005 3.3
2016-Feb-11 05:22 005 3.3
2016-Feb-11 05:17 005 3.3
2016-Feb-11 05:12 005 3.9
2016-Feb-11 05:07 005 3.9
2016-Feb-11 05:02 005 3.9
2016-Feb-11 04:57 005 1 4.4
2016-Feb-11 04:52 005 4.4
2016-Feb-11 04:47 005 4.4
2016-Feb-11 04:42 005 4.4
2016-Feb-11 04:37 005 4.4
2016-Feb-11 04:32 005 4.4
2016-Feb-11 04:27 005 5.0
2016-Feb-11 04:22 005 1 gusting 2 5.0
2016-Feb-11 04:17 005 0 gusting 2 5.0
2016-Feb-11 04:12 005 4.4
2016-Feb-11 04:07 005 4.4
2016-Feb-11 04:02 005 4.4
2016-Feb-11 03:57 005 0 gusting 4 4.4
2016-Feb-11 03:52 005 4.4
2016-Feb-11 03:47 005 2 gusting 5 4.4
2016-Feb-11 03:42 005 3.9
2016-Feb-11 03:37 005 0 gusting 0 3.9
2016-Feb-11 03:32 005 4 gusting 3 3.9
2016-Feb-11 03:27 005 3 gusting 3 3.3
2016-Feb-11 03:22 286 3.9
2016-Feb-11 03:17 286 3.9
2016-Feb-11 03:12 286 3.3
2016-Feb-11 03:07 286 3.3
2016-Feb-11 03:02 286 1 gusting 3 3.3
2016-Feb-11 02:57 228 1 gusting 3 3.9
2016-Feb-11 02:52 228 0 gusting 3 4.4
2016-Feb-11 02:47 228 1 gusting 3 4.4
2016-Feb-11 02:42 231 2 4.4
2016-Feb-11 02:37 238 4.4
2016-Feb-11 02:32 240 0 5.0
2016-Feb-11 02:27 278 0 5.0
2016-Feb-11 02:22 331 5.0
2016-Feb-11 02:17 331 5.0
2016-Feb-11 02:12 331 5.0
2016-Feb-11 02:07 331 5.0
2016-Feb-11 02:02 331 5.0
2016-Feb-11 01:57 331 5.0
2016-Feb-11 01:52 331 5.0
2016-Feb-11 01:47 331 5.0
2016-Feb-11 01:42 331 5.0
2016-Feb-11 01:37 331 5.6
2016-Feb-11 01:32 331 5.6
2016-Feb-11 01:27 331 5.6
2016-Feb-11 01:22 331 5.6
2016-Feb-11 01:17 331 5.6
2016-Feb-11 01:12 331 1 gusting 4 6.1
2016-Feb-11 01:07 331 0 gusting 4 6.1
2016-Feb-11 01:02 331 1 gusting 4 6.1
2016-Feb-11 00:57 329 2 gusting 4 6.1
2016-Feb-11 00:52 328 2 gusting 5 6.1
2016-Feb-11 00:47 328 2 gusting 5 6.1
2016-Feb-11 00:42 328 3 gusting 5 6.7
2016-Feb-11 00:37 328 1 gusting 5 7.2
2016-Feb-11 00:32 323 1 gusting 7 7.8
2016-Feb-11 00:27 321 2 gusting 7 8.3
2016-Feb-11 00:22 321 1 gusting 12 9.4
2016-Feb-11 00:17 321 3 gusting 12 10.0
2016-Feb-11 00:12 285 1 gusting 7 10.0
2016-Feb-11 00:07 265 2 gusting 7 10.6
2016-Feb-11 00:02 261 0 gusting 7 10.6
2016-Feb-10 23:57 257 7 gusting 7 10.6
2016-Feb-10 23:52 226 0 gusting 13 10.6
2016-Feb-10 23:47 234 3 gusting 13 10.6
2016-Feb-10 23:42 205 2 gusting 7 10.6
2016-Feb-10 23:37 236 2 gusting 7 10.6
2016-Feb-10 23:32 247 10.6
2016-Feb-10 23:27 205 1 gusting 13 10.6
2016-Feb-10 23:22 232 1 gusting 5 10.6
2016-Feb-10 23:17 248 2 gusting 5 10.6
2016-Feb-10 23:12 248 4 gusting 8 10.0
2016-Feb-10 23:07 232 0 gusting 8 10.0
2016-Feb-10 23:02 251 3 gusting 8 9.4
2016-Feb-10 22:57 244 9.4
2016-Feb-10 22:52 228 0 gusting 2 8.9
2016-Feb-10 22:47 263 0 gusting 2 7.8
2016-Feb-10 22:42 263 7.2
2016-Feb-10 22:37 263 7.2
2016-Feb-10 22:32 263 7.2
2016-Feb-10 22:27 263 1 7.2
2016-Feb-10 22:22 263 0 gusting 1 7.8
2016-Feb-10 22:17 263 1 gusting 1 8.3
2016-Feb-10 22:12 263 8.9
2016-Feb-10 22:07 263 8.9
2016-Feb-10 22:02 263 9.4
2016-Feb-10 21:57 263 0 gusting 1 9.4
2016-Feb-10 21:52 263 9.4
2016-Feb-10 21:47 263 9.4
2016-Feb-10 21:42 263 10.0
2016-Feb-10 21:37 263 10.0
2016-Feb-10 21:32 263 10.0
2016-Feb-10 21:27 257 2 gusting 6 10.0
2016-Feb-10 21:22 255 3 gusting 8 10.0
2016-Feb-10 21:17 237 2 gusting 8 10.0
2016-Feb-10 21:12 261 0 gusting 8 10.0
2016-Feb-10 21:07 255 2 gusting 8 10.0
2016-Feb-10 21:02 240 4 gusting 8 10.6
2016-Feb-10 20:57 245 5 gusting 7 10.0
2016-Feb-10 20:52 254 1 gusting 6 10.0
2016-Feb-10 20:47 261 3 gusting 6 10.0
2016-Feb-10 20:42 259 0 gusting 2 10.0
2016-Feb-10 20:37 211 4 gusting 2 9.4
2016-Feb-10 20:32 263 4 gusting 0 8.9
2016-Feb-10 20:27 238 1 gusting 0 8.3
2016-Feb-10 20:22 176 0 gusting 2 8.3
2016-Feb-10 20:17 175 0 gusting 2 8.3
2016-Feb-10 20:12 175 7.8
2016-Feb-10 20:07 175 0 7.8
2016-Feb-10 20:02 175 7.8
2016-Feb-10 19:57 175 7.2
2016-Feb-10 19:52 175 7.2
2016-Feb-10 19:47 175 7.2
2016-Feb-10 19:42 175 7.2
2016-Feb-10 19:37 175 1 gusting 5 7.2
2016-Feb-10 19:32 175 1 gusting 5 7.2
2016-Feb-10 19:27 175 1 gusting 5 7.2
2016-Feb-10 19:22 175 1 gusting 4 7.2
2016-Feb-10 19:17 175 4 gusting 4 7.2
2016-Feb-10 19:12 175 2 gusting 5 7.8
2016-Feb-10 19:07 176 4 gusting 5 7.8
2016-Feb-10 19:02 177 3 gusting 5 7.8
2016-Feb-10 18:57 177 3 gusting 4 7.8
2016-Feb-10 18:52 178 3 gusting 4 8.3
2016-Feb-10 18:47 182 3 gusting 4 8.9
2016-Feb-10 18:42 182 2 gusting 6 8.9
2016-Feb-10 18:37 182 1 gusting 6 9.4
2016-Feb-10 18:32 186 4 gusting 6 9.4
2016-Feb-10 18:27 241 10.0
2016-Feb-10 18:22 252 0 gusting 8 10.0
2016-Feb-10 18:17 277 3 gusting 8 10.0
2016-Feb-10 18:12 265 2 gusting 9 10.0
2016-Feb-10 18:07 273 4 gusting 9 10.0
2016-Feb-10 18:02 273 3 gusting 9 10.0
2016-Feb-10 17:57 261 7 gusting 10 10.0
2016-Feb-10 17:52 266 6 gusting 10 10.0
2016-Feb-10 17:47 263 5 gusting 10 10.0
2016-Feb-10 17:42 265 4 gusting 14 10.6
2016-Feb-10 17:37 275 6 gusting 14 10.6
2016-Feb-10 17:32 269 4 gusting 13 10.6
2016-Feb-10 17:27 274 5 gusting 13 10.6
2016-Feb-10 17:22 265 6 gusting 12 10.6
2016-Feb-10 17:17 290 7 gusting 12 10.6
2016-Feb-10 17:12 252 8 gusting 15 10.6
2016-Feb-10 17:07 280 5 gusting 15 10.6
2016-Feb-10 17:02 280 6 gusting 15 10.6
2016-Feb-10 16:57 260 4 gusting 15 10.6
2016-Feb-10 16:52 261 3 gusting 13 11.1
2016-Feb-10 16:47 267 5 gusting 13 11.1
2016-Feb-10 16:42 271 12 gusting 14 11.1
2016-Feb-10 16:37 317 6 gusting 14 11.1
2016-Feb-10 16:32 277 11 gusting 17 11.1
2016-Feb-10 16:27 250 11 gusting 17 11.1
2016-Feb-10 16:22 261 9 gusting 15 11.1
2016-Feb-10 16:17 279 6 gusting 15 11.7
2016-Feb-10 16:12 273 13 gusting 18 11.7
2016-Feb-10 16:07 254 11 gusting 18 11.7
2016-Feb-10 16:02 309 7 gusting 18 11.7
2016-Feb-10 15:57 261 12 gusting 19 11.7
2016-Feb-10 15:52 270 13 gusting 18 11.7
2016-Feb-10 15:47 275 6 gusting 18 11.7
2016-Feb-10 15:42 251 8 gusting 16 12.2
2016-Feb-10 15:37 277 7 gusting 16 12.2
2016-Feb-10 15:32 267 7 gusting 20 12.2
2016-Feb-10 15:27 271 7 gusting 20 12.2
2016-Feb-10 15:22 298 4 gusting 20 12.8
2016-Feb-10 15:17 277 7 gusting 20 12.8
2016-Feb-10 15:12 278 9 gusting 20 12.8
2016-Feb-10 15:07 230 9 gusting 20 12.8
2016-Feb-10 15:02 277 6 gusting 20 12.8
2016-Feb-10 14:57 267 6 gusting 19 12.8
2016-Feb-10 14:52 288 11 gusting 20 12.8
2016-Feb-10 14:47 252 11 gusting 20 12.8
2016-Feb-10 14:42 258 8 gusting 20 12.8
2016-Feb-10 14:37 259 6 gusting 20 13.3
2016-Feb-10 14:32 248 10 gusting 19 13.3
2016-Feb-10 14:27 274 9 gusting 19 13.3
2016-Feb-10 14:22 257 11 gusting 15 13.3
2016-Feb-10 14:17 264 3 gusting 15 13.3
2016-Feb-10 14:12 264 8 gusting 19 13.3
2016-Feb-10 14:07 277 11 gusting 19 13.3
2016-Feb-10 14:02 309 6 gusting 19 13.3
2016-Feb-10 13:57 271 8 gusting 20 13.3
2016-Feb-10 13:52 275 12 gusting 20 13.3
2016-Feb-10 13:47 355 5 gusting 20 13.3
2016-Feb-10 13:42 275 6 gusting 21 13.3
2016-Feb-10 13:37 265 13 gusting 21 13.3
2016-Feb-10 13:32 261 12 gusting 25 13.3
2016-Feb-10 13:27 277 11 gusting 25 13.3
2016-Feb-10 13:22 258 14 gusting 21 13.9
2016-Feb-10 13:17 298 11 gusting 21 13.9
2016-Feb-10 13:12 300 14 gusting 19 13.3
2016-Feb-10 13:07 265 13 gusting 19 13.3
2016-Feb-10 13:02 325 13 gusting 19 13.3
2016-Feb-10 12:57 260 11 gusting 20 13.3
2016-Feb-10 12:52 261 11 gusting 18 13.3
2016-Feb-10 12:47 315 10 gusting 18 13.3
2016-Feb-10 12:42 254 7 gusting 22 13.3
2016-Feb-10 12:37 271 8 gusting 22 13.3
2016-Feb-10 12:32 309 8 gusting 22 13.3
2016-Feb-10 12:27 264 10 gusting 22 13.3
2016-Feb-10 12:22 263 13 gusting 19 13.3
2016-Feb-10 12:17 257 13 gusting 19 13.3
2016-Feb-10 12:12 273 12 gusting 22 13.3
2016-Feb-10 12:07 278 22 gusting 22 13.3
2016-Feb-10 12:02 256 8 gusting 22 12.8
2016-Feb-10 11:57 253 11 gusting 20 12.8
2016-Feb-10 11:52 254 14 gusting 20 12.8
2016-Feb-10 11:47 221 6 gusting 20 12.8
2016-Feb-10 11:42 296 10 gusting 23 12.8
2016-Feb-10 11:37 263 17 gusting 23 12.8
2016-Feb-10 11:32 256 10 gusting 22 13.3
2016-Feb-10 11:27 262 10 gusting 22 12.8
2016-Feb-10 11:22 258 17 gusting 21 12.8
2016-Feb-10 11:17 273 13 gusting 21 12.8
2016-Feb-10 11:12 274 4 gusting 23 12.8
2016-Feb-10 11:07 275 13 gusting 23 12.8
2016-Feb-10 11:02 262 10 gusting 23 12.8
2016-Feb-10 10:57 248 5 gusting 28 12.8
2016-Feb-10 10:52 254 9 gusting 25 12.8
2016-Feb-10 10:47 267 19 gusting 25 12.8
2016-Feb-10 10:42 253 14 gusting 25 12.8
2016-Feb-10 10:37 242 18 gusting 25 12.8
2016-Feb-10 10:32 261 11 gusting 23 12.2
2016-Feb-10 10:27 306 7 gusting 23 12.2
2016-Feb-10 10:22 283 10 gusting 22 12.2
2016-Feb-10 10:17 256 20 gusting 22 12.2
2016-Feb-10 10:12 283 8 gusting 23 12.8
2016-Feb-10 10:07 266 7 gusting 23 12.8
2016-Feb-10 10:02 300 13 gusting 23 12.8
2016-Feb-10 09:57 269 13 gusting 19 12.2
2016-Feb-10 09:52 261 6 gusting 22 12.2
2016-Feb-10 09:47 293 12 gusting 22 11.7
2016-Feb-10 09:42 268 5 gusting 19 11.7
2016-Feb-10 09:37 265 6 gusting 19 12.2
2016-Feb-10 09:32 288 13 gusting 10 11.7
2016-Feb-10 09:27 271 8 gusting 10 11.1
2016-Feb-10 09:22 260 10 gusting 16 11.1
2016-Feb-10 09:17 284 6 gusting 16 10.6
2016-Feb-10 09:12 265 4 gusting 16 10.0
2016-Feb-10 09:07 324 6 gusting 16 9.4
2016-Feb-10 09:02 261 5 gusting 27 9.4
2016-Feb-10 08:57 284 8 gusting 22 9.4
2016-Feb-10 08:52 309 21 gusting 23 10.6
2016-Feb-10 08:47 277 14 gusting 23 11.7
2016-Feb-10 08:42 262 9 gusting 29 11.7
2016-Feb-10 08:37 267 13 gusting 29 11.7
2016-Feb-10 08:32 300 12 gusting 24 11.7
2016-Feb-10 08:27 263 4 gusting 24 11.7
2016-Feb-10 08:22 261 10 gusting 30 11.7
2016-Feb-10 08:17 250 6 gusting 30 11.7
2016-Feb-10 08:12 265 4 gusting 26 11.7
2016-Feb-10 08:07 228 6 gusting 26 11.7
2016-Feb-10 08:02 277 7 gusting 26 11.7
2016-Feb-10 07:57 269 20 gusting 29 11.1
2016-Feb-10 07:52 250 9 gusting 31 11.1
2016-Feb-10 07:47 270 12 gusting 31 11.1
2016-Feb-10 07:42 236 19 gusting 26 11.1
2016-Feb-10 07:37 244 25 gusting 26 11.1
2016-Feb-10 07:32 266 18 gusting 23 11.1
2016-Feb-10 07:27 278 17 gusting 23 11.1
2016-Feb-10 07:22 269 8 gusting 28 11.1
2016-Feb-10 07:17 267 12 gusting 28 11.1
2016-Feb-10 07:12 286 8 gusting 24 11.1
2016-Feb-10 07:07 262 7 gusting 24 11.1
2016-Feb-10 07:02 259 13 gusting 24 11.1
2016-Feb-10 06:57 244 8 gusting 21 11.1
2016-Feb-10 06:52 271 8 gusting 21 11.1
2016-Feb-10 06:47 255 17 gusting 21 11.1
2016-Feb-10 06:42 246 5 gusting 26 11.1
2016-Feb-10 06:37 291 18 gusting 26 11.1
2016-Feb-10 06:32 283 15 gusting 28 11.1
2016-Feb-10 06:27 279 7 gusting 28 11.1
2016-Feb-10 06:22 270 8 gusting 27 11.7
2016-Feb-10 06:17 296 12 gusting 27 11.7
2016-Feb-10 06:12 256 14 gusting 26 11.7
2016-Feb-10 06:07 273 10 gusting 26 11.7
2016-Feb-10 06:02 258 17 gusting 26 11.7
2016-Feb-10 05:57 245 20 gusting 27 11.7
2016-Feb-10 05:52 275 12 gusting 26 11.7
2016-Feb-10 05:47 276 13 gusting 26 11.7
2016-Feb-10 05:42 277 13 gusting 32 11.7
2016-Feb-10 05:37 269 11 gusting 32 11.7
2016-Feb-10 05:32 234 13 gusting 30 11.7
2016-Feb-10 05:27 258 19 gusting 30 12.2
2016-Feb-10 05:22 252 19 gusting 30 12.2
2016-Feb-10 05:17 234 12 gusting 30 12.2
2016-Feb-10 05:12 265 9 gusting 33 12.2
2016-Feb-10 05:07 264 12 gusting 33 12.2
2016-Feb-10 05:02 250 13 gusting 33 12.2
2016-Feb-10 04:57 263 13 gusting 30 12.2
2016-Feb-10 04:52 269 10 gusting 26 12.2
2016-Feb-10 04:47 227 11 gusting 26 12.2
2016-Feb-10 04:42 257 17 gusting 24 12.2
2016-Feb-10 04:37 269 19 gusting 24 12.2
2016-Feb-10 04:32 246 17 gusting 23 12.2
2016-Feb-10 04:27 261 12 gusting 23 12.2
2016-Feb-10 04:22 270 7 gusting 25 12.2
2016-Feb-10 04:17 275 6 gusting 25 12.2
2016-Feb-10 04:12 291 13 gusting 26 12.2
2016-Feb-10 04:07 296 7 gusting 26 12.2
2016-Feb-10 04:02 264 10 gusting 26 12.2
2016-Feb-10 03:57 263 13 gusting 25 12.8
2016-Feb-10 03:52 267 9 gusting 25 12.8
2016-Feb-10 03:47 275 18 gusting 25 12.8
2016-Feb-10 03:42 255 8 gusting 23 12.8
2016-Feb-10 03:37 270 9 gusting 23 12.8
2016-Feb-10 03:32 271 12 gusting 26 12.8
2016-Feb-10 03:27 271 13 gusting 26 12.8
2016-Feb-10 03:22 280 13 gusting 20 12.8
2016-Feb-10 03:17 295 4 gusting 20 12.8
2016-Feb-10 03:12 286 14 gusting 23 12.8
2016-Feb-10 03:07 268 13 gusting 23 12.8
2016-Feb-10 03:02 275 6 gusting 23 12.8
2016-Feb-10 02:57 267 9 gusting 19 12.8
2016-Feb-10 02:52 294 12 gusting 24 13.3
2016-Feb-10 02:47 269 12 gusting 24 12.8
2016-Feb-10 02:42 277 7 gusting 18 13.3
2016-Feb-10 02:37 281 10 gusting 18 13.3
2016-Feb-10 02:32 298 6 gusting 26 13.3
2016-Feb-10 02:27 301 3 gusting 26 13.3
2016-Feb-10 02:22 259 13 gusting 25 13.3
2016-Feb-10 02:17 273 3 gusting 25 13.3
2016-Feb-10 02:12 236 3 gusting 26 13.3
2016-Feb-10 02:07 263 10 gusting 26 13.3
2016-Feb-10 02:02 272 4 gusting 26 13.3
2016-Feb-10 01:57 261 13 gusting 8 13.3
2016-Feb-10 01:52 221 13 gusting 15 13.3
2016-Feb-10 01:47 251 5 gusting 15 13.3
2016-Feb-10 01:42 260 7 gusting 11 13.3
2016-Feb-10 01:37 250 3 gusting 11 13.3
2016-Feb-10 01:32 261 11 gusting 13 13.3
2016-Feb-10 01:27 254 4 gusting 13 13.3
2016-Feb-10 01:22 259 8 gusting 13 13.9
2016-Feb-10 01:17 259 7 gusting 13 13.9
2016-Feb-10 01:12 248 3 gusting 14 13.9
2016-Feb-10 01:07 263 5 gusting 14 13.9
2016-Feb-10 01:02 238 2 gusting 14 13.9
2016-Feb-10 00:57 256 6 gusting 13 13.9
2016-Feb-10 00:52 268 2 gusting 13 13.9
2016-Feb-10 00:47 237 5 gusting 13 13.9
2016-Feb-10 00:42 263 2 gusting 15 13.9
2016-Feb-10 00:37 242 2 gusting 15 13.9
2016-Feb-10 00:32 255 3 gusting 15 13.9
2016-Feb-10 00:27 246 1 gusting 15 13.9
2016-Feb-10 00:22 236 2 gusting 9 13.9
2016-Feb-10 00:17 242 3 gusting 9 13.9
2016-Feb-10 00:12 269 1 gusting 12 14.4
2016-Feb-10 00:07 044 5 gusting 12 14.4
2016-Feb-10 00:02 263 0 gusting 12 14.4
2016-Feb-09 23:57 244 3 gusting 12 14.4
2016-Feb-09 23:52 217 14.4
2016-Feb-09 23:47 217 2 gusting 10 14.4
2016-Feb-09 23:42 250 1 gusting 15 14.4
2016-Feb-09 23:37 196 1 gusting 15 14.4
2016-Feb-09 23:32 284 4 gusting 15 14.4
2016-Feb-09 23:27 252 2 gusting 15 14.4
2016-Feb-09 23:22 240 4 gusting 10 14.4
2016-Feb-09 23:17 257 11 gusting 10 14.4
2016-Feb-09 23:12 250 4 gusting 13 14.4
2016-Feb-09 23:07 234 5 gusting 13 14.4
2016-Feb-09 23:02 195 4 gusting 13 14.4
2016-Feb-09 22:57 267 5 gusting 19 14.4
2016-Feb-09 22:52 250 4 gusting 15 14.4
2016-Feb-09 22:47 216 4 gusting 15 14.4
2016-Feb-09 22:42 194 4 gusting 13 14.4
2016-Feb-09 22:37 252 6 gusting 13 13.9
2016-Feb-09 22:32 231 7 gusting 15 13.9
2016-Feb-09 22:27 196 8 gusting 15 13.9
2016-Feb-09 22:22 198 6 gusting 13 13.9
2016-Feb-09 22:17 196 4 gusting 13 13.9
2016-Feb-09 22:12 217 8 gusting 14 13.9
2016-Feb-09 22:07 277 6 gusting 14 13.9
2016-Feb-09 22:02 219 8 gusting 14 13.9
2016-Feb-09 21:57 205 12 gusting 13 13.9
2016-Feb-09 21:52 184 4 gusting 13 13.9
2016-Feb-09 21:47 188 7 gusting 13 13.9
2016-Feb-09 21:42 241 6 gusting 13 13.9
2016-Feb-09 21:37 208 6 gusting 13 13.9
2016-Feb-09 21:32 238 6 gusting 15 13.9
2016-Feb-09 21:27 201 3 gusting 15 13.9
2016-Feb-09 21:22 235 6 gusting 15 13.9
2016-Feb-09 21:17 215 6 gusting 15 13.9
2016-Feb-09 21:12 233 4 gusting 19 13.9
2016-Feb-09 21:07 236 6 gusting 19 13.9
2016-Feb-09 21:02 273 3 gusting 19 13.3
2016-Feb-09 20:57 221 3 gusting 25 13.9
2016-Feb-09 20:52 209 7 gusting 17 13.9
2016-Feb-09 20:47 153 8 gusting 17 13.9
2016-Feb-09 20:42 194 6 gusting 18 13.9
2016-Feb-09 20:37 285 7 gusting 18 13.3
2016-Feb-09 20:32 209 8 gusting 20 13.3
2016-Feb-09 20:27 191 3 gusting 20 13.3
2016-Feb-09 20:22 219 8 gusting 19 13.3
2016-Feb-09 20:17 211 7 gusting 19 13.3
2016-Feb-09 20:12 171 12 gusting 18 12.8
2016-Feb-09 20:07 222 6 gusting 18 12.8
2016-Feb-09 20:02 146 6 gusting 18 12.8
2016-Feb-09 19:57 185 12 gusting 13 12.8
2016-Feb-09 19:52 215 4 gusting 14 12.8
2016-Feb-09 19:47 228 6 gusting 14 12.8
2016-Feb-09 19:42 171 6 gusting 22 12.8
2016-Feb-09 19:37 198 2 gusting 22 12.8
2016-Feb-09 19:32 194 2 gusting 19 12.8
2016-Feb-09 19:27 219 9 gusting 19 12.8
2016-Feb-09 19:22 200 11 gusting 19 12.8
2016-Feb-09 19:17 166 9 gusting 19 12.8
2016-Feb-09 19:12 227 6 gusting 23 13.3
2016-Feb-09 19:07 219 7 gusting 23 13.3
2016-Feb-09 19:02 140 6 gusting 23 13.3
2016-Feb-09 18:57 166 6 gusting 24 12.8
2016-Feb-09 18:52 165 11 gusting 16 13.3
2016-Feb-09 18:47 155 6 gusting 16 13.3
2016-Feb-09 18:42 161 6 gusting 13 13.3
2016-Feb-09 18:37 167 9 gusting 13 13.3
2016-Feb-09 18:32 204 6 gusting 18 13.3
2016-Feb-09 18:27 159 8 gusting 18 13.3
2016-Feb-09 18:22 190 7 gusting 13 13.3
2016-Feb-09 18:17 182 5 gusting 13 13.3
2016-Feb-09 17:57 179 4 gusting 13 13.3